Wind_Speed
17 17 16 15 15 15 14 14 14 13 13 12 12 12 12 11 10 10 9 9 9 9 9 9 8 8 8 8 7 8 9 10 10 10 11 11 11 12 12 13 13 13 13
17 16 16 16 15 15 14 14 14 14 14 13 13 13 12 11 11 11 10 10 10 10 10 9 9 9 9 9 9 9 10 11 11 12 12 12 13 13 13 13 13 13 13
17 17 17 17 16 16 15 14 15 15 15 14 14 13 13 13 12 12 12 11 12 12 11 10 11 11 11 11 12 12 11 11 12 12 13 14 14 14 13 13 13 14 15
18 18 18 18 17 16 16 15 15 14 15 15 15 14 14 14 13 13 13 13 13 13 13 12 12 12 12 13 13 13 13 13 13 13 13 14 14 14 14 14 14 15 15
19 18 18 17 17 17 16 16 16 15 14 14 15 15 15 15 15 14 14 15 15 14 13 13 13 13 13 13 13 14 14 14 14 14 14 14 14 13 14 14 15 15 15
19 19 19 18 18 17 17 17 17 16 16 15 15 16 16 16 16 15 16 16 15 15 15 15 15 15 15 14 14 15 15 15 15 15 15 15 15 14 15 15 15 16 16
20 20 19 19 18 17 17 17 17 17 16 16 16 16 16 16 16 16 17 17 17 16 16 16 16 16 16 16 15 15 16 16 16 17 16 16 16 16 16 16 16 17 17
18 19 19 18 18 17 17 18 17 18 18 17 17 17 17 17 17 17 17 17 17 17 18 17 16 16 16 16 16 16 16 16 17 17 17 17 17 17 17 18 17 17 18
18 18 18 19 19 19 18 18 18 18 18 18 18 18 18 17 17 17 18 18 19 19 19 18 18 17 17 17 17 17 17 17 17 18 19 18 19 18 18 18 19 19 19
18 17 18 19 19 19 19 19 19 19 19 18 18 18 18 18 18 19 19 19 20 20 20 20 18 18 19 19 18 19 19 19 19 19 18 19 19 19 19 20 20 20 19
19 18 18 18 18 18 18 18 18 18 18 17 17 18 19 19 20 20 20 20 19 19 20 20 19 19 19 19 19 19 20 20 20 20 20 19 20 20 21 21 21 20 20
20 19 18 17 17 17 17 18 19 18 18 18 18 19 20 20 20 20 20 20 19 20 20 21 21 21 21 20 21 21 21 21 22 21 21 21 21 21 21 21 21 22 22
20 19 19 18 18 18 18 18 19 19 19 20 20 20 20 21 21 22 21 21 21 21 22 22 22 22 22 22 22 22 22 22 23 22 22 22 22 22 22 22 22 23 23
21 20 20 20 20 20 20 20 20 20 20 20 21 21 22 22 22 23 23 23 23 23 22 22 22 22 22 22 23 23 23 23 23 23 23 23 23 23 23 23 23 23 24
23 22 22 22 22 21 21 21 20 21 21 21 22 23 23 22 23 23 24 24 24 24 23 23 23 23 23 23 23 24 24 23 23 23 23 23 23 23 23 23 24 24 24
24 23 24 24 23 23 22 22 21 21 21 22 23 24 23 23 23 24 24 24 24 24 24 24 24 24 24 25 25 24 24 24 24 24 24 23 24 23 24 24 24 25 24
25 25 25 25 25 24 24 23 23 22 22 22 22 22 23 24 25 25 25 25 25 25 25 25 25 26 27 26 26 25 25 25 25 24 24 24 24 24 24 24 24 24 23
27 26 25 25 25 25 25 24 24 23 23 23 23 23 25 25 25 25 27 26 26 26 26 26 26 26 26 27 26 26 26 26 26 25 25 24 24 24 24 24 24 24 23
27 26 26 26 26 25 25 25 25 25 25 25 25 25 26 27 27 27 26 27 27 27 27 26 26 26 26 27 27 27 26 26 25 25 25 24 24 24 24 23 23 23 23
27 27 27 27 27 26 26 26 26 26 26 26 26 27 27 27 28 28 27 27 27 26 26 25 25 25 25 25 26 26 26 25 25 25 24 24 23 23 23 23 23 23 23
27 27 27 27 27 27 26 26 27 27 27 27 27 26 27 28 27 27 27 27 26 25 25 24 24 24 23 24 24 25 25 24 24 24 24 24 24 23 23 23 23 23 24
27 27 28 28 28 28 27 27 27 27 27 27 28 27 28 28 29 28 27 26 26 25 24 23 23 23 23 23 23 24 24 23 24 24 24 24 24 24 24 24 24 23 23
28 28 28 28 28 29 28 27 27 27 28 28 27 27 28 27 27 26 25 25 24 24 23 22 22 22 22 23 23 23 23 24 24 24 24 24 24 23 23 23 23 23 22
28 28 28 28 29 30 28 27 27 27 27 26 26 26 25 25 25 24 24 23 23 23 23 22 22 22 23 24 24 23 23 24 25 25 25 24 24 23 23 23 23 22 22
29 29 28 28 28 27 26 26 26 27 26 26 26 25 25 24 24 24 23 22 21 22 22 22 23 23 23 24 24 23 23 23 23 23 22 23 22 22 22 22 22 22 22
27 27 27 26 26 26 26 26 26 26 26 26 26 25 25 25 24 23 23 22 21 21 21 22 22 22 21 21 21 22 22 22 21 22 22 23 23 23 23 23 23 23 23
Wind_Direction
273 276 278 278 276 275 276 276 274 270 269 270 275 273 271 273 276 271 268 266 264 265 271 271 275 279 286 282 279 278 271 271 270 270 267 268 273 273 272 267 266 262 262
270 273 274 277 276 273 271 272 272 269 266 270 274 273 268 267 271 269 267 264 266 271 270 272 272 276 279 276 276 277 275 273 270 270 268 269 272 272 271 266 263 260 261
268 271 270 272 275 273 270 269 268 267 265 266 268 270 266 266 270 267 263 262 264 268 270 269 272 272 274 275 274 273 273 274 274 273 270 271 272 270 268 268 265 262 264
269 272 269 266 266 269 268 265 268 266 265 265 265 267 267 268 268 266 262 264 266 266 268 270 271 271 272 274 273 274 273 273 273 274 273 272 270 270 267 266 265 265 268
267 272 270 264 262 262 263 262 265 266 265 267 266 266 265 265 265 264 262 263 265 265 267 270 271 272 274 273 274 273 273 272 274 274 273 271 270 272 270 267 267 267 271
269 270 269 265 262 258 257 258 263 265 265 265 265 264 264 264 263 263 263 264 264 267 267 268 271 272 273 271 272 271 272 272 272 271 269 268 268 270 269 266 267 269 271
272 270 269 265 266 261 257 258 261 264 265 265 266 264 265 265 265 262 262 264 265 266 266 267 268 268 269 271 272 270 271 272 272 271 268 267 266 268 269 267 266 268 271
272 269 267 270 269 264 260 260 262 264 264 265 266 267 269 268 266 263 264 264 263 264 264 265 264 266 267 270 272 271 271 273 274 273 270 269 267 268 268 268 268 268 270
266 268 265 266 265 263 262 262 263 263 262 263 264 265 267 267 267 265 265 265 264 266 265 263 263 265 266 267 270 272 271 275 274 271 274 272 271 270 269 269 269 271 272
260 264 264 264 263 262 261 261 260 261 261 261 262 261 262 263 265 266 267 268 268 267 264 262 265 266 266 267 269 271 273 275 275 272 273 273 275 272 270 270 270 273 274
261 265 264 264 266 265 262 260 261 260 260 260 260 261 262 265 267 267 266 268 270 270 267 266 268 269 270 271 271 272 273 275 276 275 275 276 276 275 274 271 271 272 273
264 266 266 266 266 267 265 263 262 262 261 260 260 263 265 267 269 268 267 267 268 268 267 267 269 272 273 273 272 272 273 275 277 277 275 274 274 274 275 272 272 272 273
263 264 266 269 269 267 266 265 265 266 265 262 261 261 262 264 266 266 267 267 268 268 269 269 269 270 272 274 273 272 273 274 276 276 275 274 274 275 275 273 274 274 274
263 266 268 269 269 268 267 266 267 269 267 264 264 264 264 265 267 266 266 268 269 269 269 268 268 269 270 272 272 272 273 274 274 274 274 273 273 274 274 274 275 275 274
261 264 266 267 268 268 267 266 268 269 268 267 267 267 268 269 268 267 266 268 269 268 268 268 267 267 267 269 272 273 273 272 272 273 274 273 273 273 273 275 275 275 275
259 263 265 267 268 268 267 267 270 270 270 270 270 268 270 271 269 268 266 267 268 267 269 269 268 267 267 269 270 272 274 271 270 271 273 273 273 273 273 275 275 277 276
258 263 264 265 267 267 267 267 268 268 267 269 271 269 272 274 272 269 268 269 269 268 269 268 268 268 267 268 269 272 273 271 269 269 271 272 272 273 273 275 276 278 277
259 261 264 266 265 266 266 267 266 266 265 267 268 267 272 274 274 273 270 269 268 268 268 268 268 267 266 267 269 269 270 269 268 268 270 272 272 272 273 274 276 276 277
260 262 264 266 266 266 267 268 268 268 266 265 266 269 270 273 274 274 274 270 267 265 266 266 268 267 265 265 266 266 268 270 269 268 269 272 272 272 273 274 275 276 276
264 264 266 267 268 268 269 269 268 268 269 268 269 269 269 273 274 275 274 272 270 269 267 268 268 267 265 264 263 264 267 269 268 267 268 270 272 272 272 273 274 275 276
262 263 264 267 268 268 267 268 267 268 268 268 270 271 272 273 274 274 273 272 271 269 267 267 267 268 267 264 263 264 265 264 266 268 270 271 272 272 271 272 273 275 276
262 262 263 264 265 267 268 268 268 268 268 268 270 271 272 273 273 273 272 269 269 268 265 264 266 267 268 266 264 263 265 264 266 268 269 270 270 270 270 272 273 275 276
264 263 263 262 263 266 268 267 268 269 269 269 269 271 273 273 273 271 269 266 266 267 265 264 265 265 265 264 264 263 263 265 266 267 270 271 271 270 270 272 272 274 274
264 264 264 263 262 264 264 266 268 269 269 268 269 270 271 271 272 270 269 266 263 264 265 265 265 266 264 263 264 265 265 266 268 269 268 268 268 269 271 272 274 274 274
264 264 263 264 263 262 265 266 267 268 267 267 268 269 268 268 272 270 268 265 263 264 265 266 267 266 265 265 267 268 268 270 270 270 269 269 269 271 272 273 272 274 275
263 265 265 265 264 265 266 266 267 268 266 266 266 267 268 269 268 266 264 264 264 264 265 266 268 266 267 267 266 268 270 270 272 271 270 269 268 269 271 271 272 273 274
Height
5849 5849 5849 5848 5848 5849 5849 5849 5849 5849 5849 5849 5849 5849 5849 5849 5849 5849 5849 5849 5849 5850 5850 5850 5850 5850 5850 5850 5850 5849 5849 5849 5850 5850 5851 5851 5850 5851 5850 5851 5851 5851 5851
5845 5845 5845 5845 5845 5845 5845 5845 5845 5846 5846 5846 5846 5846 5846 5846 5846 5847 5847 5847 5847 5848 5848 5848 5848 5848 5848 5848 5848 5847 5847 5847 5847 5847 5848 5848 5848 5847 5847 5847 5847 5848 5848
5840 5841 5840 5841 5841 5841 5841 5842 5842 5842 5842 5842 5842 5842 5843 5843 5843 5844 5844 5844 5844 5845 5845 5845 5845 5845 5845 5845 5845 5844 5844 5844 5844 5844 5845 5845 5845 5844 5844 5844 5844 5844 5845
5836 5836 5836 5836 5837 5837 5838 5838 5838 5838 5838 5839 5839 5839 5840 5840 5840 5840 5841 5841 5841 5842 5842 5842 5842 5842 5842 5842 5841 5841 5841 5841 5841 5841 5841 5841 5841 5841 5841 5841 5841 5840 5840
5831 5831 5831 5832 5832 5833 5833 5834 5834 5834 5835 5835 5835 5835 5836 5836 5836 5837 5837 5838 5838 5838 5839 5839 5838 5839 5838 5838 5838 5838 5837 5837 5837 5837 5837 5837 5837 5837 5837 5837 5837 5837 5836
5826 5827 5827 5827 5828 5828 5829 5829 5829 5830 5830 5830 5831 5831 5832 5832 5832 5833 5834 5834 5834 5835 5835 5835 5835 5835 5835 5835 5834 5834 5833 5833 5833 5833 5833 5833 5833 5833 5833 5833 5833 5833 5832
5822 5822 5822 5823 5823 5823 5824 5824 5825 5825 5825 5825 5826 5827 5828 5828 5828 5829 5829 5830 5830 5830 5831 5831 5831 5831 5831 5831 5830 5830 5829 5829 5829 5828 5828 5828 5828 5828 5828 5829 5829 5828 5828
5818 5818 5818 5818 5818 5819 5819 5819 5820 5820 5820 5821 5822 5822 5823 5823 5824 5824 5825 5826 5826 5826 5827 5827 5827 5826 5826 5826 5826 5826 5825 5825 5824 5823 5823 5823 5823 5823 5823 5824 5824 5824 5824
5813 5813 5813 5814 5814 5814 5814 5814 5814 5815 5815 5816 5817 5817 5818 5819 5819 5820 5821 5821 5822 5822 5822 5822 5822 5822 5822 5822 5822 5822 5821 5820 5819 5819 5818 5818 5818 5818 5818 5818 5819 5819 5818
5808 5808 5808 5808 5808 5808 5808 5809 5809 5810 5810 5811 5811 5812 5813 5814 5815 5816 5816 5816 5816 5817 5817 5817 5817 5817 5817 5817 5817 5817 5816 5816 5815 5814 5813 5813 5813 5813 5813 5813 5813 5813 5813
5803 5803 5802 5803 5803 5803 5803 5804 5805 5805 5805 5806 5806 5807 5808 5809 5810 5810 5811 5811 5811 5811 5812 5812 5812 5812 5812 5812 5812 5812 5811 5811 5810 5809 5809 5808 5808 5808 5807 5807 5807 5807 5807
5797 5797 5798 5798 5798 5798 5798 5799 5800 5800 5800 5801 5802 5802 5802 5803 5804 5805 5805 5805 5806 5806 5806 5806 5806 5806 5807 5806 5806 5806 5806 5805 5804 5804 5803 5803 5802 5802 5801 5801 5801 5801 5801
5792 5792 5793 5793 5793 5793 5793 5794 5794 5795 5795 5796 5796 5797 5797 5798 5799 5799 5799 5799 5800 5800 5800 5800 5800 5801 5801 5800 5800 5800 5800 5799 5799 5798 5797 5797 5796 5796 5795 5795 5795 5795 5794
5786 5787 5787 5787 5788 5788 5788 5788 5789 5789 5790 5790 5791 5791 5791 5792 5792 5793 5793 5793 5793 5794 5794 5793 5794 5794 5794 5794 5794 5794 5793 5793 5792 5792 5791 5791 5790 5790 5789 5789 5789 5788 5788
5780 5781 5781 5782 5782 5782 5783 5783 5783 5784 5784 5784 5785 5785 5785 5785 5785 5786 5786 5786 5786 5787 5787 5787 5787 5787 5788 5788 5787 5787 5786 5786 5786 5785 5785 5784 5784 5783 5783 5783 5782 5781 5781
5773 5775 5775 5776 5776 5776 5776 5777 5777 5777 5778 5778 5778 5778 5779 5779 5779 5779 5779 5779 5779 5779 5779 5779 5780 5780 5780 5781 5780 5780 5779 5779 5779 5778 5778 5777 5777 5776 5776 5776 5775 5774 5774
5767 5768 5769 5769 5770 5770 5770 5770 5771 5771 5771 5771 5771 5772 5772 5772 5772 5772 5772 5772 5772 5772 5772 5772 5772 5772 5773 5773 5773 5772 5772 5772 5772 5771 5771 5770 5770 5770 5769 5769 5768 5768 5767
5759 5760 5761 5762 5762 5763 5763 5764 5764 5764 5765 5765 5765 5765 5765 5765 5765 5765 5764 5764 5764 5764 5764 5764 5764 5764 5765 5765 5765 5765 5765 5764 5764 5764 5764 5763 5763 5763 5762 5762 5761 5761 5760
5751 5752 5753 5754 5755 5755 5756 5757 5757 5757 5758 5758 5758 5757 5757 5757 5757 5756 5756 5756 5756 5756 5756 5756 5756 5756 5756 5757 5757 5757 5756 5756 5756 5756 5756 5756 5756 5756 5755 5755 5755 5754 5754
5743 5744 5745 5746 5747 5748 5748 5749 5749 5750 5750 5750 5750 5750 5749 5749 5749 5748 5748 5748 5748 5748 5748 5748 5748 5748 5748 5748 5748 5748 5749 5749 5748 5748 5748 5748 5748 5748 5747 5747 5747 5747 5747
5735 5736 5737 5738 5739 5740 5740 5741 5742 5742 5742 5742 5742 5742 5741 5741 5741 5740 5740 5740 5740 5740 5740 5740 5740 5740 5740 5740 5740 5740 5741 5741 5741 5741 5741 5741 5741 5740 5740 5740 5740 5740 5740
5727 5728 5729 5731 5732 5732 5733 5733 5734 5734 5734 5734 5734 5734 5733 5733 5732 5731 5731 5731 5731 5732 5732 5733 5733 5733 5733 5733 5733 5733 5733 5733 5734 5734 5734 5734 5733 5733 5733 5732 5732 5732 5732
5719 5720 5721 5722 5723 5724 5724 5725 5726 5726 5726 5726 5726 5725 5725 5724 5723 5722 5722 5723 5723 5724 5724 5725 5725 5725 5725 5726 5726 5726 5726 5726 5726 5726 5726 5726 5726 5726 5725 5725 5725 5725 5725
5710 5711 5712 5713 5714 5715 5715 5717 5717 5717 5717 5717 5717 5717 5717 5716 5715 5715 5714 5715 5715 5716 5716 5717 5718 5718 5718 5718 5719 5719 5719 5719 5719 5719 5718 5718 5718 5718 5718 5718 5718 5718 5718
5702 5703 5704 5704 5705 5706 5707 5708 5709 5709 5709 5709 5710 5709 5709 5709 5708 5708 5708 5708 5708 5708 5709 5710 5710 5711 5711 5711 5712 5712 5712 5712 5712 5711 5711 5711 5711 5711 5711 5711 5711 5711 5711
5694 5694 5695 5696 5697 5698 5699 5700 5700 5700 5701 5701 5701 5702 5702 5701 5701 5701 5701 5701 5701 5701 5702 5702 5703 5703 5704 5704 5705 5705 5705 5705 5705 5704 5704 5704 5704 5704 5704 5704 5704 5704 5704